Time,TemperatureF,DewpointF,PressureIn,WindDirection,WindDirectionDegrees,WindSpeedMPH,WindSpeedGustMPH,Humidity,HourlyPrecipIn,Conditions,Clouds,dailyrainin,SoftwareType,DateUTC
2013-05-27 00:13:00,47.0,41.0,30.05,NW,304,0.0,-999.0,79,-99.99,,,0.00,weatherlink.com 1.10,2013-05-27 04:13:00,
2013-05-27 00:28:00,46.2,41.0,30.04,NW,304,0.0,-999.0,81,-99.99,,,0.00,weatherlink.com 1.10,2013-05-27 04:28:00,
2013-05-27 00:43:00,45.4,41.0,30.05,NW,304,0.0,-999.0,83,-99.99,,,0.00,weatherlink.com 1.10,2013-05-27 04:43:00,
2013-05-27 00:58:00,45.0,41.0,30.05,NW,304,0.0,-999.0,84,-99.99,,,0.00,weatherlink.com 1.10,2013-05-27 04:58:00,
2013-05-27 01:13:00,44.8,41.0,30.05,NW,304,0.0,-999.0,85,-99.99,,,0.00,weatherlink.com 1.10,2013-05-27 05:13:00,
2013-05-27 01:28:00,44.8,41.0,30.05,NW,304,0.0,-999.0,85,-99.99,,,0.00,weatherlink.com 1.10,2013-05-27 05:28:00,
2013-05-27 01:43:00,44.9,41.0,30.05,NW,304,0.0,-999.0,85,-99.99,,,0.00,weatherlink.com 1.10,2013-05-27 05:43:00,
2013-05-27 01:58:00,45.2,41.0,30.05,WNW,303,0.0,-999.0,84,-99.99,,,0.00,weatherlink.com 1.10,2013-05-27 05:58:00,
2013-05-27 02:13:00,45.4,41.0,30.05,SW,215,0.0,-999.0,84,-99.99,,,0.00,weatherlink.com 1.10,2013-05-27 06:13:00,
2013-05-27 02:28:00,45.4,41.0,30.05,West,267,0.0,-999.0,84,-99.99,,,0.00,weatherlink.com 1.10,2013-05-27 06:28:00,
2013-05-27 02:44:00,45.4,41.0,30.05,West,267,0.0,-999.0,84,-99.99,,,0.00,weatherlink.com 1.10,2013-05-27 06:44:00,
2013-05-27 02:59:00,45.4,41.0,30.05,West,261,0.0,-999.0,84,-99.99,,,0.00,weatherlink.com 1.10,2013-05-27 06:59:00,
2013-05-27 03:14:00,45.1,41.0,30.05,WSW,238,0.0,-999.0,85,-99.99,,,0.00,weatherlink.com 1.10,2013-05-27 07:14:00,
2013-05-27 03:29:00,44.8,41.0,30.05,WSW,238,0.0,-999.0,85,-99.99,,,0.00,weatherlink.com 1.10,2013-05-27 07:29:00,
2013-05-27 03:44:00,44.5,41.0,30.05,WSW,238,0.0,-999.0,86,-99.99,,,0.00,weatherlink.com 1.10,2013-05-27 07:44:00,
2013-05-27 03:59:00,44.0,40.0,30.05,WSW,238,0.0,-999.0,87,-99.99,,,0.00,weatherlink.com 1.10,2013-05-27 07:59:00,
2013-05-27 04:14:00,43.6,40.0,30.05,WSW,238,0.0,-999.0,88,-99.99,,,0.00,weatherlink.com 1.10,2013-05-27 08:14:00,
2013-05-27 04:29:00,43.4,40.0,30.05,WSW,238,0.0,-999.0,89,-99.99,,,0.00,weatherlink.com 1.10,2013-05-27 08:29:00,
2013-05-27 04:44:00,43.6,41.0,30.05,WSW,237,0.0,-999.0,89,-99.99,,,0.00,weatherlink.com 1.10,2013-05-27 08:44:00,
2013-05-27 04:59:00,43.6,41.0,30.05,WSW,237,0.0,-999.0,89,-99.99,,,0.00,weatherlink.com 1.10,2013-05-27 08:59:00,
2013-05-27 05:14:00,43.4,40.0,30.06,WSW,237,0.0,-999.0,89,-99.99,,,0.00,weatherlink.com 1.10,2013-05-27 09:14:00,
2013-05-27 05:29:00,42.8,40.0,30.06,WSW,237,0.0,-999.0,90,-99.99,,,0.00,weatherlink.com 1.10,2013-05-27 09:29:00,
2013-05-27 05:44:00,42.3,40.0,30.06,WSW,237,0.0,-999.0,91,-99.99,,,0.00,weatherlink.com 1.10,2013-05-27 09:44:00,
2013-05-27 05:59:00,42.1,40.0,30.06,WSW,237,0.0,-999.0,93,-99.99,,,0.00,weatherlink.com 1.10,2013-05-27 09:59:00,
2013-05-27 06:14:00,42.5,41.0,30.07,WSW,237,0.0,-999.0,94,-99.99,,,0.00,weatherlink.com 1.10,2013-05-27 10:14:00,
2013-05-27 06:29:00,43.7,42.0,30.07,WSW,237,0.0,-999.0,92,-99.99,,,0.00,weatherlink.com 1.10,2013-05-27 10:29:00,
2013-05-27 06:44:00,45.5,42.0,30.07,WNW,302,2.0,-999.0,88,-99.99,,,0.00,weatherlink.com 1.10,2013-05-27 10:44:00,
2013-05-27 06:59:00,47.2,43.0,30.07,NW,325,0.0,-999.0,84,-99.99,,,0.00,weatherlink.com 1.10,2013-05-27 10:59:00,
2013-05-27 07:14:00,48.5,43.0,30.07,NW,324,5.0,-999.0,81,-99.99,,,0.00,weatherlink.com 1.10,2013-05-27 11:14:00,
2013-05-27 07:29:00,49.7,43.0,30.07,WNW,286,0.0,-999.0,77,-99.99,,,0.00,weatherlink.com 1.10,2013-05-27 11:29:00,
2013-05-27 07:44:00,50.7,43.0,30.06,NNW,335,5.0,-999.0,75,-99.99,,,0.00,weatherlink.com 1.10,2013-05-27 11:44:00,
2013-05-27 07:59:00,51.8,43.0,30.06,NW,308,6.0,-999.0,72,-99.99,,,0.00,weatherlink.com 1.10,2013-05-27 11:59:00,
2013-05-27 08:14:00,52.9,44.0,30.06,NE,36,0.0,-999.0,71,-99.99,,,0.00,weatherlink.com 1.10,2013-05-27 12:14:00,
2013-05-27 08:29:00,54.2,44.0,30.07,NW,305,1.0,-999.0,68,-99.99,,,0.00,weatherlink.com 1.10,2013-05-27 12:29:00,
2013-05-27 08:44:00,55.8,44.0,30.07,NW,317,0.0,-999.0,64,-99.99,,,0.00,weatherlink.com 1.10,2013-05-27 12:44:00,
2013-05-27 08:59:00,57.1,43.0,30.07,NW,304,0.0,-999.0,60,-99.99,,,0.00,weatherlink.com 1.10,2013-05-27 12:59:00,
2013-05-27 09:14:00,58.3,42.0,30.07,NW,321,6.0,-999.0,56,-99.99,,,0.00,weatherlink.com 1.10,2013-05-27 13:14:00,
2013-05-27 09:29:00,59.2,43.0,30.07,WNW,294,0.0,-999.0,55,-99.99,,,0.00,weatherlink.com 1.10,2013-05-27 13:29:00,
2013-05-27 09:44:00,60.2,43.0,30.07,NNW,338,0.0,-999.0,53,-99.99,,,0.00,weatherlink.com 1.10,2013-05-27 13:44:00,
2013-05-27 09:59:00,61.0,42.0,30.07,West,280,5.0,-999.0,50,-99.99,,,0.00,weatherlink.com 1.10,2013-05-27 13:59:00,
2013-05-27 10:14:00,61.8,43.0,30.07,SSW,198,2.0,-999.0,50,-99.99,,,0.00,weatherlink.com 1.10,2013-05-27 14:14:00,
2013-05-27 10:29:00,62.9,42.0,30.07,West,276,0.0,-999.0,47,-99.99,,,0.00,weatherlink.com 1.10,2013-05-27 14:29:00,
2013-05-27 10:44:00,63.6,41.0,30.06,NNW,331,0.0,-999.0,44,-99.99,,,0.00,weatherlink.com 1.10,2013-05-27 14:44:00,
2013-05-27 10:59:00,64.5,40.0,30.06,South,172,2.0,-999.0,41,-99.99,,,0.00,weatherlink.com 1.10,2013-05-27 14:59:00,
2013-05-27 11:14:00,65.4,39.0,30.06,West,271,4.0,-999.0,38,-99.99,,,0.00,weatherlink.com 1.10,2013-05-27 15:14:00,
2013-05-27 11:29:00,66.4,39.0,30.05,NE,36,1.0,-999.0,36,-99.99,,,0.00,weatherlink.com 1.10,2013-05-27 15:29:00,
2013-05-27 11:44:00,67.4,39.0,30.05,ENE,63,0.0,-999.0,35,-99.99,,,0.00,weatherlink.com 1.10,2013-05-27 15:44:00,
2013-05-27 11:59:00,68.0,36.0,30.05,WNW,290,1.0,-999.0,31,-99.99,,,0.00,weatherlink.com 1.10,2013-05-27 15:59:00,
2013-05-27 12:14:00,68.6,37.0,30.05,NNW,345,4.0,-999.0,31,-99.99,,,0.00,weatherlink.com 1.10,2013-05-27 16:14:00,
2013-05-27 12:29:00,69.8,36.0,30.05,SW,231,3.0,-999.0,29,-99.99,,,0.00,weatherlink.com 1.10,2013-05-27 16:29:00,
2013-05-27 12:44:00,69.7,36.0,30.04,SSW,199,5.0,-999.0,29,-99.99,,,0.00,weatherlink.com 1.10,2013-05-27 16:44:00,
2013-05-27 12:58:00,70.3,37.0,30.04,NNW,329,6.0,-999.0,30,-99.99,,,0.00,weatherlink.com 1.10,2013-05-27 16:58:00,
2013-05-27 13:13:00,70.5,37.0,30.04,North,5,1.0,-999.0,29,-99.99,,,0.00,weatherlink.com 1.10,2013-05-27 17:13:00,
2013-05-27 13:28:00,70.6,37.0,30.03,SW,214,0.0,-999.0,29,-99.99,,,0.00,weatherlink.com 1.10,2013-05-27 17:28:00,
2013-05-27 13:43:00,71.3,38.0,30.03,SW,229,1.0,-999.0,30,-99.99,,,0.00,weatherlink.com 1.10,2013-05-27 17:43:00,
2013-05-27 13:58:00,72.3,38.0,30.03,NNW,329,8.0,-999.0,29,-99.99,,,0.00,weatherlink.com 1.10,2013-05-27 17:58:00,
2013-05-27 14:13:00,73.4,38.0,30.02,WNW,285,4.0,-999.0,28,-99.99,,,0.00,weatherlink.com 1.10,2013-05-27 18:13:00,
2013-05-27 14:28:00,72.8,37.0,30.02,West,271,0.0,-999.0,27,-99.99,,,0.00,weatherlink.com 1.10,2013-05-27 18:28:00,
2013-05-27 14:43:00,73.3,36.0,30.02,NNW,329,2.0,-999.0,26,-99.99,,,0.00,weatherlink.com 1.10,2013-05-27 18:43:00,
2013-05-27 14:58:00,74.2,37.0,30.02,NW,312,2.0,-999.0,26,-99.99,,,0.00,weatherlink.com 1.10,2013-05-27 18:58:00,
2013-05-27 15:13:00,74.3,38.0,30.02,NNE,31,0.0,-999.0,27,-99.99,,,0.00,weatherlink.com 1.10,2013-05-27 19:13:00,
2013-05-27 15:28:00,74.4,37.0,30.02,West,275,0.0,-999.0,26,-99.99,,,0.00,weatherlink.com 1.10,2013-05-27 19:28:00,
2013-05-27 15:43:00,73.1,37.0,30.02,NNW,343,2.0,-999.0,27,-99.99,,,0.00,weatherlink.com 1.10,2013-05-27 19:43:00,
2013-05-27 15:58:00,74.4,37.0,30.02,WNW,298,0.0,-999.0,26,-99.99,,,0.00,weatherlink.com 1.10,2013-05-27 19:58:00,
2013-05-27 16:13:00,74.4,36.0,30.02,West,267,1.0,-999.0,25,-99.99,,,0.00,weatherlink.com 1.10,2013-05-27 20:13:00,
2013-05-27 16:28:00,74.1,35.0,30.02,North,5,0.0,-999.0,24,-99.99,,,0.00,weatherlink.com 1.10,2013-05-27 20:28:00,
2013-05-27 16:43:00,74.0,36.0,30.02,West,279,3.0,-999.0,25,-99.99,,,0.00,weatherlink.com 1.10,2013-05-27 20:43:00,
2013-05-27 16:58:00,74.1,36.0,30.02,NNW,331,0.0,-999.0,25,-99.99,,,0.00,weatherlink.com 1.10,2013-05-27 20:58:00,
2013-05-27 17:13:00,74.7,38.0,30.02,WNW,294,2.0,-999.0,26,-99.99,,,0.00,weatherlink.com 1.10,2013-05-27 21:13:00,
2013-05-27 17:28:00,73.6,37.0,30.02,West,276,0.0,-999.0,26,-99.99,,,0.00,weatherlink.com 1.10,2013-05-27 21:28:00,
2013-05-27 17:43:00,74.3,38.0,30.02,WNW,298,1.0,-999.0,27,-99.99,,,0.00,weatherlink.com 1.10,2013-05-27 21:43:00,
2013-05-27 17:58:00,73.7,39.0,30.02,West,275,1.0,-999.0,28,-99.99,,,0.00,weatherlink.com 1.10,2013-05-27 21:58:00,
2013-05-27 18:13:00,73.1,37.0,30.02,SW,221,0.0,-999.0,27,-99.99,,,0.00,weatherlink.com 1.10,2013-05-27 22:13:00,
2013-05-27 18:28:00,73.1,38.0,30.02,West,276,0.0,-999.0,28,-99.99,,,0.00,weatherlink.com 1.10,2013-05-27 22:28:00,
2013-05-27 18:43:00,72.7,38.0,30.03,NW,312,0.0,-999.0,28,-99.99,,,0.00,weatherlink.com 1.10,2013-05-27 22:43:00,
2013-05-27 18:58:00,73.0,39.0,30.03,WNW,301,1.0,-999.0,29,-99.99,,,0.00,weatherlink.com 1.10,2013-05-27 22:58:00,
2013-05-27 19:13:00,72.9,40.0,30.03,WNW,295,1.0,-999.0,30,-99.99,,,0.00,weatherlink.com 1.10,2013-05-27 23:13:00,
2013-05-27 19:28:00,71.5,41.0,30.04,WNW,295,0.0,-999.0,33,-99.99,,,0.00,weatherlink.com 1.10,2013-05-27 23:28:00,
2013-05-27 19:43:00,70.2,41.0,30.04,WNW,295,0.0,-999.0,35,-99.99,,,0.00,weatherlink.com 1.10,2013-05-27 23:43:00,
2013-05-27 19:58:00,68.7,42.0,30.05,WNW,295,0.0,-999.0,38,-99.99,,,0.00,weatherlink.com 1.10,2013-05-27 23:58:00,
2013-05-27 20:13:00,66.9,42.0,30.05,WNW,295,0.0,-999.0,41,-99.99,,,0.00,weatherlink.com 1.10,2013-05-28 00:13:00,
2013-05-27 20:28:00,65.0,43.0,30.05,WNW,295,0.0,-999.0,45,-99.99,,,0.00,weatherlink.com 1.10,2013-05-28 00:28:00,
2013-05-27 20:43:00,63.2,44.0,30.06,WNW,295,0.0,-999.0,49,-99.99,,,0.00,weatherlink.com 1.10,2013-05-28 00:43:00,
2013-05-27 20:58:00,61.3,43.0,30.07,WNW,295,0.0,-999.0,52,-99.99,,,0.00,weatherlink.com 1.10,2013-05-28 00:58:00,
2013-05-27 21:13:00,59.8,44.0,30.07,WNW,295,0.0,-999.0,56,-99.99,,,0.00,weatherlink.com 1.10,2013-05-28 01:13:00,
2013-05-27 21:28:00,58.8,45.0,30.08,WNW,295,0.0,-999.0,60,-99.99,,,0.00,weatherlink.com 1.10,2013-05-28 01:28:00,
2013-05-27 21:43:00,57.8,45.0,30.08,WNW,295,0.0,-999.0,63,-99.99,,,0.00,weatherlink.com 1.10,2013-05-28 01:43:00,
2013-05-27 21:58:00,56.7,45.0,30.09,WNW,295,0.0,-999.0,64,-99.99,,,0.00,weatherlink.com 1.10,2013-05-28 01:58:00,
2013-05-27 22:13:00,56.0,45.0,30.09,WNW,295,0.0,-999.0,67,-99.99,,,0.00,weatherlink.com 1.10,2013-05-28 02:13:00,
2013-05-27 22:28:00,55.2,45.0,30.09,WNW,295,0.0,-999.0,68,-99.99,,,0.00,weatherlink.com 1.10,2013-05-28 02:28:00,
2013-05-27 22:43:00,54.6,45.0,30.10,WNW,295,0.0,-999.0,70,-99.99,,,0.00,weatherlink.com 1.10,2013-05-28 02:43:00,
2013-05-27 22:58:00,54.1,45.0,30.10,WNW,295,0.0,-999.0,71,-99.99,,,0.00,weatherlink.com 1.10,2013-05-28 02:58:00,
2013-05-27 23:14:00,53.6,45.0,30.11,WNW,295,0.0,-999.0,72,-99.99,,,0.00,weatherlink.com 1.10,2013-05-28 03:14:00,
2013-05-27 23:28:00,53.2,45.0,30.11,WNW,295,0.0,-999.0,73,-99.99,,,0.00,weatherlink.com 1.10,2013-05-28 03:28:00,
2013-05-27 23:43:00,52.9,46.0,30.12,WNW,295,0.0,-999.0,76,-99.99,,,0.00,weatherlink.com 1.10,2013-05-28 03:43:00,
2013-05-27 23:58:00,52.3,46.0,30.12,WNW,295,0.0,-999.0,78,-99.99,,,0.00,weatherlink.com 1.10,2013-05-28 03:58:00,